Location: Kott?ru
(16.6209°N, 80.6208°E)
Time: 01:22:20
(UTC+00:00)

Cosmos 1238 Rocket - Pass Details

Date: 18 September 2020
Orbit: 374 x 1028 km, 83.0° (Epoch: 26 October)

Event Time Altitude Azimuth Distance (km) Brightness Sun altitude
Rises 22:14:35 0° 360° (N) 3,721 7.2 -32.1°
Reaches altitude 10° 22:17:17 10° 3° (N) 2,723 6.5 -31.5°
Maximum altitude 22:23:32 67° 85° (E) 964 4.0 -30.0°
Drops below altitude 10° 22:28:54 10° 167° (SSE) 2,354 6.0 -28.7°
Sets 22:31:05 0° 170° (S) 3,185 6.7 -28.2°
